DH3PAE-6 Weather Reports


time (UTC)temp
C
wind
direction
speed
KPH
gust
KPH
rain 1hr
cm
rain 24hr
cm
rain mn
cm
humidity
%
barometer
mb
20260507055817 6 293 3.2 4.8 0.00 0.23 0.05 98 1012.2
20260507054817 6 315 1.6 3.2 0.00 0.25 0.05 98 1012.2
20260507053817 6 248 3.2 6.4 0.00 0.25 0.05 98 1012.1
20260507052837 6 315 1.6 3.2 0.00 0.28 0.05 98 1012.0
20260507051837 6 293 1.6 4.8 0.00 0.33 0.05 98 1011.9
20260507050817 6 293 1.6 4.8 0.00 0.38 0.05 98 1011.7
20260507045817 6 293 3.2 6.4 0.00 0.38 0.05 98 1011.5
20260507044817 6 248 1.6 3.2 0.00 0.41 0.05 98 1011.4
20260507043817 6 293 1.6 3.2 0.00 0.43 0.05 98 1011.4
20260507042817 6 338 3.2 4.8 0.00 0.43 0.05 98 1011.3
20260507041820 6 293 1.6 1.6 0.00 0.43 0.05 98 1011.3
20260507040817 6 315 1.6 3.2 0.00 0.43 0.05 98 1011.3
20260507035817 6 0.0 3.2 0.00 0.43 0.05 98 1011.3
20260507034817 6 315 1.6 4.8 0.00 0.43 0.05 98 1011.2
20260507033820 6 293 6.4 11.3 0.00 0.43 0.05 98 1011.1
20260507032820 6 293 6.4 12.9 0.00 0.43 0.05 98 1011.0
20260507031827 6 293 3.2 4.8 0.00 0.43 0.05 98 1010.9
20260507030820 6 315 6.4 14.5 0.00 0.43 0.05 98 1010.9
20260507025817 6 315 3.2 4.8 0.00 0.46 0.05 98 1010.9
20260507024817 6 315 1.6 3.2 0.00 0.46 0.05 98 1011.0
20260507023817 6 338 3.2 6.4 0.00 0.48 0.05 98 1011.1
20260507022817 6 270 3.2 6.4 0.00 0.51 0.05 98 1011.0
20260507021817 6 315 3.2 4.8 0.00 0.53 0.05 98 1011.0
20260507020820 6 293 4.8 14.5 0.03 0.56 0.05 98 1010.8
20260507015857 6 315 6.4 16.1 0.03 0.61 0.05 98 1010.7
20260507014820 6 338 4.8 8.0 0.03 0.61 0.05 98 1010.7
20260507013817 6 293 8.0 12.9 0.03 0.64 0.05 98 1010.5
20260507012840 6 315 4.8 8.0 0.03 0.64 0.05 98 1010.6
20260507011817 6 270 6.4 16.1 0.03 0.66 0.05 98 1010.4
20260507010840 6 293 3.2 6.4 0.00 0.66 0.05 98 1010.3
20260507005817 6 293 3.2 6.4 0.00 0.69 0.05 98 1010.2
20260507004817 6 338 4.8 9.7 0.00 0.71 0.05 98 1010.1
20260507003817 6 315 6.4 12.9 0.00 0.71 0.05 98 1010.0
20260507002817 6 315 3.2 6.4 0.00 0.71 0.05 98 1010.0
20260507001817 6 315 1.6 6.4 0.00 0.71 0.05 98 1010.0
20260507000817 6 293 3.2 4.8 0.00 0.71 0.05 98 1010.0
20260506235825 6 315 4.8 8.0 0.00 0.71 0.05 98 1010.1
20260506234819 6 0.0 3.2 0.00 0.71 0.05 98 1010.1
20260506233817 6 338 1.6 3.2 0.03 0.71 0.05 98 1010.0
20260506232817 6 0 6.4 12.9 0.03 0.71 0.05 98 1010.0
20260506231837 6 338 1.6 3.2 0.03 0.71 0.05 98 1010.0
20260506230817 6 338 4.8 9.7 0.05 0.71 0.05 98 1009.9
20260506225817 6 338 8.0 12.9 0.05 0.71 0.05 98 1009.9
20260506224817 6 338 3.2 8.0 0.05 0.71 0.05 98 1009.7
20260506223817 6 338 4.8 14.5 0.03 0.71 0.03 98 1009.7
20260506222817 6 23 6.4 14.5 0.03 0.71 0.03 98 1009.7
20260506221820 6 315 4.8 6.4 0.03 0.71 0.03 98 1009.6
20260506220816 6 338 3.2 6.4 0.00 0.71 0.00 98 1009.5
20260506215819 7 23 3.2 6.4 0.00 0.71 0.71 98 1009.3
20260506214816 7 180 1.6 4.8 0.00 0.71 0.71 98 1009.2
20260506213816 7 0 4.8 8.0 0.00 0.71 0.71 98 1009.2
20260506212819 7 248 1.6 4.8 0.00 0.71 0.71 98 1009.1
20260506211839 6 338 1.6 3.2 0.00 0.71 0.71 98 1009.1
20260506210816 6 270 1.6 3.2 0.00 0.71 0.71 98 1009.1
20260506205840 6 293 3.2 6.4 0.00 0.71 0.71 98 1009.0
20260506204817 6 293 4.8 8.0 0.03 0.71 0.71 98 1008.9
20260506203816 6 293 1.6 4.8 0.03 0.71 0.71 98 1009.0
20260506202842 6 338 4.8 12.9 0.03 0.71 0.71 98 1008.8
20260506201816 6 315 6.4 12.9 0.03 0.74 0.71 98 1008.8
20260506200819 6 315 9.7 14.5 0.03 0.74 0.71 98 1008.7
20260506195819 7 315 3.2 6.4 0.05 0.74 0.71 98 1008.6
20260506194839 7 293 3.2 6.4 0.03 0.74 0.69 98 1008.6
20260506193816 7 293 6.4 14.5 0.03 0.74 0.69 98 1008.4
20260506192816 7 293 4.8 8.0 0.03 0.74 0.69 98 1008.3
20260506191816 7 248 3.2 6.4 0.03 0.76 0.69 98 1008.2
20260506190819 7 0 1.6 3.2 0.03 0.76 0.69 98 1008.2
20260506185816 7 338 3.2 6.4 0.00 0.76 0.66 97 1008.2
20260506184819 7 293 3.2 6.4 0.00 0.79 0.66 98 1008.1
20260506183816 6 270 4.8 11.3 0.00 0.79 0.66 97 1007.9
20260506182816 7 270 1.6 3.2 0.00 0.79 0.66 97 1007.8
20260506181836 6 315 8.0 16.1 0.00 0.81 0.66 97 1007.7
20260506180839 7 338 1.6 3.2 0.00 0.84 0.66 97 1007.7
20260506175816 6 315 3.2 4.8 0.00 0.86 0.66 97 1007.6
20260506174816 7 315 3.2 4.8 0.00 0.89 0.66 97 1007.6
20260506173816 7 315 6.4 9.7 0.00 0.89 0.66 97 1007.3
20260506172816 7 293 3.2 11.3 0.00 0.91 0.66 97 1007.3
20260506171816 7 338 1.6 1.6 0.00 0.97 0.66 97 1007.3
20260506170816 7 315 4.8 11.3 0.00 0.99 0.66 97 1007.4
20260506165816 7 315 6.4 12.9 0.00 1.07 0.66 97 1007.3
20260506164839 7 315 4.8 9.7 0.00 1.09 0.66 97 1007.2
20260506163816 7 315 6.4 16.1 0.00 1.12 0.66 97 1007.1
20260506162816 7 270 3.2 4.8 0.00 1.17 0.66 97 1007.0
20260506161904 7 293 8.0 14.5 0.00 1.17 0.66 97 1006.9
20260506160816 7 315 6.4 11.3 0.00 1.22 0.66 97 1006.9
20260506155816 7 248 4.8 9.7 0.00 1.27 0.66 97 1006.9
20260506154839 7 315 3.2 6.4 0.00 1.30 0.66 97 1006.9
20260506153816 7 293 1.6 4.8 0.00 1.35 0.66 97 1006.9
20260506152816 7 293 3.2 9.7 0.03 1.40 0.66 97 1006.9
20260506151816 7 315 6.4 14.5 0.03 1.45 0.66 97 1006.8
20260506150816 7 293 6.4 11.3 0.03 1.50 0.66 97 1006.7
20260506145816 7 315 4.8 6.4 0.05 1.55 0.66 97 1006.6
20260506144816 8 293 6.4 16.1 0.05 1.70 0.66 97 1006.6
20260506143839 8 293 6.4 14.5 0.05 1.80 0.66 97 1006.5
20260506142816 8 338 3.2 6.4 0.03 1.78 0.64 97 1006.5
20260506141816 8 338 3.2 4.8 0.03 1.78 0.64 97 1006.3
20260506140819 8 338 4.8 8.0 0.03 1.78 0.64 97 1006.4
20260506135819 8 293 6.4 14.5 0.00 1.75 0.61 97 1006.2
20260506134816 8 315 1.6 3.2 0.00 1.75 0.61 97 1006.1
20260506133816 8 293 3.2 4.8 0.00 1.75 0.61 97 1006.3
20260506132859 8 315 8.0 12.9 0.00 1.75 0.61 97 1006.3
20260506132616 8 0.0 1.6 0.00 1.75 0.61 97 1006.2
20260506131616 8 315 3.2 8.0 0.00 1.75 0.61 97 1006.1
20260506130636 8 338 6.4 12.9 0.00 1.75 0.61 97 1006.1
20260506125615 8 293 3.2 6.4 0.00 1.75 0.61 97 1006.0
20260506124616 8 248 4.8 9.7 0.00 1.75 0.61 97 1006.0
20260506123615 8 248 3.2 12.9 0.00 1.75 0.61 97 1006.0
20260506122624 8 0.0 0.0 0.00 1.75 0.61 97 1006.0
20260506121616 8 293 8.0 12.9 0.03 1.75 0.61 97 1005.8
20260506120616 9 270 4.8 9.7 0.03 1.75 0.61 97 1005.7
20260506115618 8 338 4.8 9.7 0.03 1.75 0.61 97 1005.6
20260506114615 9 315 8.0 12.9 0.03 1.75 0.61 97 1005.6
20260506113615 8 315 4.8 11.3 0.03 1.75 0.61 97 1005.6
20260506112616 9 293 1.6 4.8 0.03 1.75 0.61 97 1005.5
20260506111619 8 315 6.4 12.9 0.00 1.75 0.61 97 1005.3
20260506110616 8 315 8.0 14.5 0.00 1.75 0.61 97 1005.5
20260506105619 8 293 4.8 19.3 0.00 1.75 0.61 97 1005.4
20260506104618 9 338 6.4 9.7 0.00 1.75 0.61 97 1005.3
20260506103615 9 293 6.4 14.5 0.00 1.75 0.61 97 1005.1
20260506102616 9 315 4.8 8.0 0.00 1.75 0.61 98 1005.0
20260506102118 9 315 6.4 12.9 0.03 1.75 0.61 97 1004.9
20260506101115 9 315 4.8 9.7 0.03 1.75 0.61 98 1004.9
20260506100115 9 248 3.2 8.0 0.03 1.75 0.61 98 1004.8
20260506095118 9 293 3.2 4.8 0.03 1.75 0.61 98 1004.7
20260506094116 9 180 1.6 4.8 0.03 1.75 0.61 98 1004.8
20260506093115 9 315 3.2 4.8 0.03 1.75 0.61 98 1004.7
20260506092115 9 293 6.4 12.9 0.00 1.73 0.58 98 1004.7
20260506091135 9 270 3.2 6.4 0.00 1.73 0.58 98 1004.7
20260506090118 9 248 3.2 4.8 0.03 1.73 0.58 98 1004.6
20260506085118 9 293 3.2 9.7 0.03 1.73 0.58 98 1004.5
20260506084122 9 248 3.2 8.0 0.05 1.73 0.58 98 1004.4
20260506083120 9 270 3.2 4.8 0.05 1.73 0.58 98 1004.3
20260506082117 9 270 3.2 4.8 0.05 1.73 0.58 98 1004.3
20260506081117 8 293 3.2 6.4 0.05 1.73 0.58 98 1004.3
20260506080117 8 270 3.2 9.7 0.03 1.70 0.56 98 1004.2
20260506073120 8 270 1.6 3.2 0.00 1.68 0.53 98 1004.2
20260506072117 8 270 1.6 4.8 0.03 1.68 0.53 98 1004.2
20260506071140 8 293 3.2 4.8 0.03 1.68 0.53 98 1004.2
20260506070117 8 293 3.2 4.8 0.03 1.68 0.53 98 1004.0
20260506062106 8 270 1.6 3.2 0.05 1.65 0.51 98 1003.8
20260506061517 8 338 1.6 3.2 0.10 1.65 0.51 98 1003.8
20260506060524 8 293 1.6 1.6 0.15 1.65 0.51 98 1003.7